Location: Ithaca
(42.4410°N, 76.4970°W)
Time: 04:26:40
(UTC-04:00)

ISS - Visible Passes

Search period start: 28 May 2017 00:00
Search period end: 07 June 2017 00:00
Orbit: 402 x 408 km, 51.6° (Epoch: 28 May)

Date Brightness Start Highest point End Pass type
(mag) Time Alt. Az. Time Alt. Az. Time Alt. Az.
28 May -0.8 00:19:23 10° NW 00:21:38 17° N 00:23:54 10° NE visible
28 May -1.8 01:55:43 10° NW 01:57:37 26° NNW 01:57:37 26° NNW visible
28 May -1.5 21:49:09 10° W 21:52:02 27° NNW 21:54:56 10° NE visible
28 May -0.7 23:27:08 10° NW 23:29:20 16° N 23:31:31 10° NE visible
29 May -1.6 01:03:47 10° NW 01:06:26 26° NNE 01:06:26 26° NNE visible
29 May -0.8 22:34:43 10° NW 22:37:00 17° N 22:39:17 10° NE visible
30 May -1.3 00:11:48 10° NW 00:14:22 20° NNE 00:15:37 17° NE visible
30 May -0.9 01:48:00 10° NW 01:48:14 12° NW 01:48:14 12° NW visible
30 May -1.0 21:42:10 10° WNW 21:44:41 20° NNW 21:47:12 10° NE visible
30 May -1.0 23:19:44 10° NW 23:22:04 18° N 23:24:23 10° NE visible
31 May -1.6 00:56:00 10° NW 00:57:35 24° NNW 00:57:35 24° NNW visible
31 May -0.9 22:27:31 10° NW 22:29:43 16° N 22:31:55 10° NE visible
01 Jun -2.0 00:04:01 10° NW 00:06:58 29° NNE 00:07:01 29° NNE visible
01 Jun -0.9 21:35:07 10° NW 21:37:21 17° N 21:39:35 10° NE visible
01 Jun -1.5 23:12:01 10° NW 23:14:42 22° NNE 23:16:30 15° ENE visible
02 Jun -1.2 00:48:13 10° WNW 00:49:07 17° WNW 00:49:07 17° WNW visible
02 Jun -1.2 22:19:57 10° NW 22:22:21 18° N 22:24:46 10° ENE visible
02 Jun -2.5 23:56:09 10° NW 23:58:39 41° NNW 23:58:39 41° NNW visible
03 Jun -1.1 21:27:45 10° NW 21:30:00 17° N 21:32:13 10° NE visible
03 Jun -2.3 23:04:09 10° NW 23:07:11 33° NNE 23:08:11 27° ENE visible
04 Jun -0.9 00:40:38 10° WNW 00:40:50 11° WNW 00:40:50 11° WNW visible
04 Jun -1.8 22:12:07 10° NW 22:14:54 24° NNE 22:17:40 10° ENE visible
04 Jun -2.4 23:48:22 10° WNW 23:50:24 34° WNW 23:50:24 34° WNW visible
05 Jun -1.4 21:20:02 10° NW 21:22:32 20° NNE 21:25:03 10° ENE visible
05 Jun -3.6 22:56:14 10° NW 22:59:31 64° NNE 23:00:00 54° E visible
06 Jun -2.7 22:04:09 10° NW 22:07:17 39° NNE 22:09:38 15° E visible
06 Jun -1.7 23:40:48 10° WNW 23:42:17 21° W 23:42:17 21° W visible
